Location: Borbetomagus
(49.6328°N, 8.3592°E)
Time: 19:57:17
(UTC+00:00)

Sich 1 - Pass Details

Date: 19 May 2025
Orbit: 574 x 603 km, 82.5° (Epoch: 20 June)

Event Time Altitude Azimuth Distance (km) Brightness Sun altitude
Rises 22:31:13 0° 351° (N) 2,838 8.1 -19.4°
Reaches altitude 10° 22:33:27 10° 353° (N) 1,927 6.8 -19.5°
Maximum altitude 22:37:42 77° 79° (E) 606 2.9 -19.7°
Enters shadow 22:38:41 51° 153° (SSE) 739 3.0 -19.7°
